| time (UTC) | temp C | wind direction | speed KPH | gust KPH | rain 1hr cm | rain 24hr cm | rain mn cm | humidity % | barometer mb |
| 20260508230704 | 10 | 169 | 4.8 | 19.3 | 0.00 | 0.00 | 0.00 | 57 | 1008.2 |
| 20260508230204 | 10 | 198 | 4.8 | 14.5 | 0.00 | 0.00 | 0.00 | 56 | 1008.2 |
| 20260508224705 | 10 | 190 | 6.4 | 12.9 | 0.00 | 0.00 | 0.00 | 55 | 1008.1 |
| 20260508224204 | 10 | 284 | 4.8 | 14.5 | 0.00 | 0.00 | 0.00 | 53 | 1008.0 |
| 20260508222705 | 10 | 243 | 8.0 | 12.9 | 0.00 | 0.00 | 0.00 | 52 | 1008.0 |
| 20260508222205 | 10 | 270 | 4.8 | 14.5 | 0.00 | 0.00 | 0.00 | 53 | 1007.9 |
| 20260508220704 | 11 | 202 | 6.4 | 12.9 | 0.00 | 0.00 | 0.00 | 53 | 1007.9 |
| 20260508220204 | 11 | 202 | 4.8 | 12.9 | 0.00 | 0.00 | 0.00 | 52 | 1007.9 |
| 20260508214704 | 10 | 244 | 4.8 | 9.7 | 0.00 | 0.00 | 0.00 | 50 | 1007.7 |
| 20260508214205 | 10 | 219 | 4.8 | 12.9 | 0.00 | 0.00 | 0.00 | 51 | 1007.7 |
| 20260508212705 | 10 | 309 | 6.4 | 11.3 | 0.00 | 0.00 | 0.00 | 50 | 1007.7 |
| 20260508212205 | 10 | 221 | 4.8 | 11.3 | 0.00 | 0.00 | 0.00 | 50 | 1007.6 |
| 20260508210704 | 10 | 253 | 4.8 | 9.7 | 0.00 | 0.00 | 0.00 | 50 | 1007.6 |
| 20260508210204 | 10 | 275 | 6.4 | 14.5 | 0.00 | 0.00 | 0.00 | 50 | 1007.7 |
| 20260508204704 | 11 | 280 | 8.0 | 19.3 | 0.00 | 0.00 | 0.00 | 49 | 1007.5 |
| 20260508204205 | 11 | 289 | 8.0 | 20.9 | 0.00 | 0.00 | 0.00 | 50 | 1007.4 |
| 20260508202704 | 11 | 265 | 6.4 | 12.9 | 0.00 | 0.00 | 0.00 | 51 | 1007.3 |
| 20260508202204 | 10 | 218 | 6.4 | 12.9 | 0.00 | 0.00 | 0.00 | 52 | 1007.3 |
| 20260508200704 | 10 | 261 | 4.8 | 8.0 | 0.00 | 0.00 | 0.00 | 52 | 1007.3 |
| 20260508200205 | 10 | 185 | 8.0 | 11.3 | 0.00 | 0.00 | 0.00 | 52 | 1007.4 |
| 20260508194705 | 10 | 291 | 8.0 | 16.1 | 0.00 | 0.00 | 0.00 | 53 | 1007.5 |
| 20260508194205 | 10 | 249 | 6.4 | 24.1 | 0.00 | 0.00 | 0.00 | 55 | 1007.5 |
| 20260508192704 | 10 | 229 | 6.4 | 11.3 | 0.00 | 0.00 | 0.00 | 52 | 1007.5 |
| 20260508192204 | 10 | 252 | 9.7 | 22.5 | 0.00 | 0.00 | 0.00 | 51 | 1007.5 |
| 20260508190704 | 10 | 282 | 6.4 | 11.3 | 0.00 | 0.00 | 0.00 | 53 | 1007.5 |
| 20260508190204 | 10 | 289 | 8.0 | 19.3 | 0.00 | 0.00 | 0.00 | 53 | 1007.5 |
| 20260508184705 | 9 | 303 | 9.7 | 19.3 | 0.00 | 0.00 | 0.00 | 52 | 1007.6 |
| 20260508184204 | 9 | 286 | 9.7 | 24.1 | 0.00 | 0.00 | 0.00 | 52 | 1007.6 |
| 20260508182704 | 10 | 218 | 9.7 | 19.3 | 0.00 | 0.00 | 0.00 | 52 | 1007.5 |
| 20260508182204 | 10 | 277 | 9.7 | 20.9 | 0.00 | 0.00 | 0.00 | 52 | 1007.5 |
| 20260508180704 | 10 | 286 | 9.7 | 22.5 | 0.00 | 0.00 | 0.00 | 54 | 1007.5 |
| 20260508180204 | 9 | 248 | 6.4 | 16.1 | 0.00 | 0.00 | 0.00 | 56 | 1007.5 |
| 20260508174704 | 9 | 278 | 6.4 | 12.9 | 0.00 | 0.00 | 0.00 | 58 | 1007.5 |
| 20260508174205 | 9 | 232 | 4.8 | 22.5 | 0.00 | 0.00 | 0.00 | 57 | 1007.5 |
| 20260508172704 | 9 | 252 | 6.4 | 12.9 | 0.00 | 0.00 | 0.00 | 56 | 1007.5 |
| 20260508172204 | 9 | 297 | 8.0 | 14.5 | 0.00 | 0.00 | 0.00 | 57 | 1007.5 |
| 20260508170704 | 10 | 196 | 6.4 | 12.9 | 0.00 | 0.00 | 0.00 | 57 | 1007.5 |
| 20260508170205 | 10 | 192 | 4.8 | 14.5 | 0.00 | 0.00 | 0.00 | 57 | 1007.5 |
| 20260508164704 | 10 | 283 | 4.8 | 11.3 | 0.00 | 0.00 | 0.00 | 55 | 1007.5 |
| 20260508164204 | 10 | 288 | 6.4 | 14.5 | 0.00 | 0.00 | 0.00 | 56 | 1007.5 |
| 20260508162704 | 9 | 261 | 8.0 | 14.5 | 0.00 | 0.00 | 0.00 | 58 | 1007.6 |
| 20260508162206 | 9 | 246 | 8.0 | 20.9 | 0.00 | 0.00 | 0.00 | 59 | 1007.6 |
| 20260508160705 | 9 | 258 | 6.4 | 14.5 | 0.00 | 0.00 | 0.00 | 59 | 1007.7 |
| 20260508160204 | 9 | 271 | 6.4 | 14.5 | 0.00 | 0.00 | 0.00 | 59 | 1007.7 |
| 20260508154704 | 9 | 304 | 6.4 | 12.9 | 0.00 | 0.00 | 0.00 | 60 | 1007.8 |
| 20260508154205 | 9 | 271 | 8.0 | 12.9 | 0.00 | 0.00 | 0.00 | 59 | 1007.9 |
| 20260508152704 | 9 | 228 | 4.8 | 9.7 | 0.00 | 0.00 | 0.00 | 63 | 1007.8 |
| 20260508152204 | 8 | 276 | 6.4 | 12.9 | 0.00 | 0.00 | 0.00 | 61 | 1007.9 |
| 20260508150705 | 8 | 263 | 4.8 | 14.5 | 0.00 | 0.00 | 0.00 | 64 | 1008.0 |
| 20260508150204 | 8 | 311 | 4.8 | 12.9 | 0.00 | 0.00 | 0.00 | 65 | 1008.0 |
| 20260508144704 | 8 | 268 | 8.0 | 11.3 | 0.00 | 0.00 | 0.00 | 64 | 1008.0 |
| 20260508144204 | 8 | 304 | 6.4 | 14.5 | 0.00 | 0.00 | 0.00 | 66 | 1008.1 |
| 20260508142704 | 7 | 251 | 4.8 | 9.7 | 0.00 | 0.00 | 0.00 | 65 | 1008.1 |
| 20260508142204 | 7 | 275 | 3.2 | 8.0 | 0.00 | 0.00 | 0.00 | 67 | 1008.0 |
| 20260508140706 | 7 | 295 | 4.8 | 8.0 | 0.00 | 0.00 | 0.00 | 69 | 1008.1 |
| 20260508140204 | 7 | 261 | 4.8 | 9.7 | 0.00 | 0.00 | 0.00 | 69 | 1008.0 |
| 20260508134704 | 7 | 295 | 3.2 | 9.7 | 0.00 | 0.00 | 0.00 | 69 | 1008.0 |
| 20260508134204 | 7 | 272 | 4.8 | 12.9 | 0.00 | 0.00 | 0.00 | 70 | 1008.1 |
| 20260508132704 | 7 | 278 | 4.8 | 8.0 | 0.00 | 0.00 | 0.00 | 70 | 1008.1 |
| 20260508132204 | 7 | 269 | 4.8 | 8.0 | 0.00 | 0.00 | 0.00 | 71 | 1008.1 |
| 20260508130704 | 7 | 276 | 4.8 | 4.8 | 0.00 | 0.00 | 0.00 | 73 | 1008.0 |
| 20260508130205 | 6 | 266 | 3.2 | 8.0 | 0.00 | 0.00 | 0.00 | 74 | 1008.0 |
| 20260508124704 | 6 | 250 | 3.2 | 4.8 | 0.00 | 0.00 | 0.00 | 75 | 1008.0 |
| 20260508124204 | 6 | 279 | 3.2 | 4.8 | 0.00 | 0.00 | 0.00 | 75 | 1008.0 |
| 20260508122704 | 6 | 282 | 4.8 | 4.8 | 0.00 | 0.00 | 0.00 | 75 | 1008.0 |
| 20260508122204 | 6 | 261 | 3.2 | 8.0 | 0.00 | 0.00 | 0.00 | 75 | 1007.9 |
| 20260508120204 | 5 | 276 | 3.2 | 4.8 | 0.00 | 0.00 | 0.00 | 77 | 1007.9 |
| 20260508114704 | 5 | 271 | 3.2 | 4.8 | 0.00 | 0.00 | 0.00 | 78 | 1007.8 |
| 20260508114204 | 5 | 261 | 4.8 | 8.0 | 0.00 | 0.00 | 0.00 | 80 | 1007.8 |
| 20260508112704 | 5 | 279 | 1.6 | 4.8 | 0.00 | 0.00 | 0.00 | 83 | 1007.6 |
| 20260508112204 | 5 | 279 | 0.0 | 3.2 | 0.00 | 0.00 | 0.00 | 84 | 1007.6 |
| 20260508110704 | 4 | 279 | 1.6 | 4.8 | 0.00 | 0.00 | 0.00 | 84 | 1007.6 |
| 20260508110204 | 4 | 279 | 0.0 | 1.6 | 0.00 | 0.00 | 0.00 | 84 | 1007.5 |
| 20260508104704 | 4 | 279 | 1.6 | 4.8 | 0.00 | 0.00 | 0.00 | 85 | 1007.4 |
| 20260508104204 | 4 | 279 | 1.6 | 8.0 | 0.00 | 0.00 | 0.00 | 85 | 1007.3 |
| 20260508102704 | 3 | 283 | 1.6 | 4.8 | 0.00 | 0.00 | 0.00 | 85 | 1007.2 |
| 20260508102204 | 3 | 283 | 3.2 | 4.8 | 0.00 | 0.00 | 0.00 | 86 | 1007.2 |
| 20260508100704 | 3 | 283 | 0.0 | 3.2 | 0.00 | 0.00 | 0.00 | 86 | 1007.1 |
| 20260508100204 | 3 | 283 | 1.6 | 4.8 | 0.00 | 0.00 | 0.00 | 87 | 1007.0 |
| 20260508094704 | 3 | 283 | 1.6 | 3.2 | 0.00 | 0.00 | 0.00 | 87 | 1006.9 |
| 20260508094204 | 3 | 283 | 1.6 | 3.2 | 0.00 | 0.00 | 0.00 | 87 | 1006.9 |
| 20260508092204 | 3 | 283 | 0.0 | 3.2 | 0.00 | 0.00 | 0.00 | 88 | 1006.7 |
| 20260508090703 | 3 | 283 | 0.0 | 1.6 | 0.00 | 0.00 | 0.00 | 88 | 1006.7 |
| 20260508090204 | 3 | 283 | 0.0 | 1.6 | 0.00 | 0.00 | 0.00 | 88 | 1006.8 |
| 20260508084704 | 3 | 283 | 0.0 | 1.6 | 0.00 | 0.00 | 0.00 | 88 | 1006.7 |
| 20260508084204 | 3 | 283 | 1.6 | 3.2 | 0.00 | 0.00 | 0.00 | 88 | 1006.8 |
| 20260508082704 | 3 | 283 | 0.0 | 3.2 | 0.00 | 0.00 | 0.00 | 89 | 1006.8 |
| 20260508082204 | 3 | 283 | 0.0 | 1.6 | 0.00 | 0.00 | 0.00 | 89 | 1006.7 |
| 20260508080704 | 3 | 283 | 0.0 | 0.0 | 0.00 | 0.00 | 0.00 | 89 | 1006.7 |
| 20260508080203 | 3 | 283 | 0.0 | 3.2 | 0.00 | 0.00 | 0.00 | 89 | 1006.7 |
| 20260508074706 | 3 | 283 | 0.0 | 0.0 | 0.00 | 0.00 | 0.00 | 89 | 1006.6 |
| 20260508074205 | 3 | 283 | 0.0 | 3.2 | 0.00 | 0.00 | 0.00 | 89 | 1006.6 |
| 20260508072706 | 3 | 283 | 0.0 | 0.0 | 0.00 | 0.00 | 0.00 | 90 | 1006.7 |
| 20260508072205 | 2 | 283 | 0.0 | 3.2 | 0.00 | 0.00 | 0.00 | 89 | 1006.7 |
| 20260508070705 | 2 | 283 | 1.6 | 4.8 | 0.00 | 0.00 | 0.00 | 90 | 1006.7 |
| 20260508070205 | 2 | 283 | 0.0 | 3.2 | 0.00 | 0.00 | 0.00 | 90 | 1006.7 |
| 20260508064706 | 2 | 283 | 1.6 | 3.2 | 0.00 | 0.00 | 0.00 | 89 | 1006.6 |
| 20260508064205 | 2 | 283 | 0.0 | 3.2 | 0.00 | 0.00 | 0.00 | 89 | 1006.7 |
| 20260508062705 | 2 | 283 | 0.0 | 1.6 | 0.00 | 0.00 | 0.00 | 89 | 1006.7 |
| 20260508062206 | 2 | 283 | 0.0 | 1.6 | 0.00 | 0.00 | 0.00 | 89 | 1006.7 |
| 20260508060705 | 2 | 283 | 0.0 | 0.0 | 0.00 | 0.00 | 0.00 | 89 | 1006.8 |
| 20260508060205 | 2 | 283 | 0.0 | 3.2 | 0.00 | 0.00 | 0.00 | 89 | 1006.8 |
| 20260508054705 | 2 | 283 | 1.6 | 3.2 | 0.00 | 0.00 | 0.00 | 89 | 1006.9 |
| 20260508054205 | 2 | 283 | 1.6 | 3.2 | 0.00 | 0.00 | 0.00 | 89 | 1007.0 |
| 20260508052705 | 2 | 283 | 0.0 | 0.0 | 0.00 | 0.00 | 0.00 | 89 | 1007.0 |
| 20260508052205 | 2 | 283 | 0.0 | 1.6 | 0.00 | 0.00 | 0.00 | 89 | 1006.9 |
| 20260508050705 | 2 | 283 | 0.0 | 0.0 | 0.00 | 0.00 | 0.00 | 88 | 1006.9 |
| 20260508050205 | 2 | 283 | 0.0 | 1.6 | 0.00 | 0.00 | 0.00 | 88 | 1007.0 |
| 20260508044705 | 2 | 283 | 1.6 | 1.6 | 0.00 | 0.00 | 0.00 | 88 | 1007.1 |
| 20260508044205 | 2 | 283 | 1.6 | 4.8 | 0.00 | 0.00 | 0.00 | 88 | 1007.2 |
| 20260508042704 | 2 | 283 | 1.6 | 3.2 | 0.00 | 0.00 | 0.00 | 87 | 1007.1 |
| 20260508042205 | 2 | 283 | 1.6 | 3.2 | 0.00 | 0.00 | 0.00 | 87 | 1007.0 |
| 20260508040705 | 2 | 283 | 0.0 | 0.0 | 0.00 | 0.00 | 0.00 | 85 | 1007.0 |
| 20260508040205 | 2 | 283 | 0.0 | 0.0 | 0.00 | 0.00 | 0.00 | 85 | 1007.0 |
| 20260508034705 | 3 | 283 | 0.0 | 0.0 | 0.00 | 0.00 | 0.00 | 84 | 1006.9 |
| 20260508034205 | 3 | 283 | 0.0 | 3.2 | 0.00 | 0.00 | 0.00 | 84 | 1007.0 |
| 20260508032704 | 3 | 283 | 0.0 | 0.0 | 0.00 | 0.00 | 0.00 | 83 | 1007.0 |
| 20260508032205 | 3 | 283 | 1.6 | 3.2 | 0.00 | 0.00 | 0.00 | 82 | 1007.0 |
| 20260508030705 | 4 | 283 | 0.0 | 1.6 | 0.00 | 0.00 | 0.00 | 81 | 1007.1 |
| 20260508030205 | 5 | 283 | 0.0 | 1.6 | 0.00 | 0.00 | 0.00 | 80 | 1007.1 |
| 20260508024705 | 5 | 283 | 1.6 | 3.2 | 0.00 | 0.00 | 0.00 | 78 | 1007.1 |
| 20260508024205 | 5 | 283 | 1.6 | 4.8 | 0.00 | 0.00 | 0.00 | 78 | 1007.1 |
| 20260508022704 | 6 | 283 | 1.6 | 4.8 | 0.00 | 0.00 | 0.00 | 77 | 1007.2 |
| 20260508022204 | 6 | 283 | 3.2 | 4.8 | 0.00 | 0.00 | 0.00 | 76 | 1007.2 |
| 20260508020705 | 6 | 288 | 3.2 | 4.8 | 0.00 | 0.00 | 0.00 | 74 | 1007.0 |
| 20260508020205 | 6 | 296 | 4.8 | 8.0 | 0.00 | 0.00 | 0.00 | 73 | 1007.0 |
| 20260508014704 | 7 | 292 | 4.8 | 4.8 | 0.00 | 0.00 | 0.00 | 71 | 1007.0 |
| 20260508014205 | 7 | 291 | 3.2 | 4.8 | 0.00 | 0.00 | 0.00 | 71 | 1006.9 |
| 20260508012705 | 7 | 287 | 4.8 | 11.3 | 0.00 | 0.00 | 0.00 | 70 | 1007.0 |
| 20260508012205 | 7 | 296 | 3.2 | 9.7 | 0.00 | 0.00 | 0.00 | 70 | 1006.9 |
| 20260508010705 | 7 | 276 | 4.8 | 9.7 | 0.00 | 0.00 | 0.00 | 69 | 1006.9 |
| 20260508010205 | 7 | 276 | 4.8 | 9.7 | 0.00 | 0.00 | 0.00 | 69 | 1006.9 |
| 20260508004704 | 7 | 271 | 4.8 | 4.8 | 0.00 | 0.00 | 0.00 | 68 | 1006.6 |
| 20260508004205 | 7 | 294 | 6.4 | 12.9 | 0.00 | 0.00 | 0.00 | 68 | 1006.5 |
| 20260508002705 | 7 | 281 | 6.4 | 12.9 | 0.00 | 0.00 | 0.00 | 66 | 1006.4 |
| 20260508002205 | 7 | 312 | 4.8 | 12.9 | 0.00 | 0.00 | 0.00 | 66 | 1006.3 |
| 20260508000705 | 7 | 282 | 8.0 | 11.3 | 0.00 | 0.00 | 0.00 | 66 | 1006.3 |
| 20260508000205 | 7 | 284 | 4.8 | 20.9 | 0.00 | 0.00 | 0.00 | 67 | 1006.3 |
| 20260507234705 | 8 | 315 | 8.0 | 12.9 | 0.00 | 0.00 | 0.00 | 65 | 1006.1 |
| 20260507234205 | 8 | 294 | 8.0 | 14.5 | 0.00 | 0.00 | 0.00 | 65 | 1006.0 |
| 20260507232705 | 8 | 301 | 11.3 | 25.7 | 0.00 | 0.00 | 0.00 | 63 | 1005.9 |
| 20260507232205 | 8 | 281 | 6.4 | 25.7 | 0.00 | 0.00 | 0.00 | 63 | 1005.9 |